Regional Weather Roundup
Issued by NWS New Orleans/Baton Rouge, LA

Home | Current Version | Previous Version | Text Only | Print | Product List | Glossary Off
Versions: 1 2 3 4 5 6 7 8 9 10 11 12 13 14 15 16 17 18 19 20 21 22 23 24 25 26 27 28 29 30 31 32 33 34 35 36 37 38 39 40 41 42 43 44 45 46 47 48 49 50

483
ASUS44 KLIX 301807
RWRLIX
NEW ORLEANS REGIONAL WEATHER ROUNDUP
NATIONAL WEATHER SERVICE NEW ORLEANS LA
100 PM CDT MON MAR 30 2015

NOTE: "FAIR" INDICATES FEW OR NO CLOUDS BELOW 12,000 FEET WITH NO
      SIGNIFICANT WEATHER AND/OR OBSTRUCTIONS TO VISIBILITY.
      SKY/WX - SKY CONDITION AND SIGNIFICANT WEATHER.
      TMP - AIR TEMPERATURE.     DP    - DEWPOINT TEMPERATURE.
      RH  - RELATIVE HUMIDITY.   PRES  - PRESSURE.
      HI  - HEAT INDEX.          WCI   - WIND CHILL INDEX.

*  THESE STATIONS ARE NOT NWS OR FAA STATIONS AND ARE NOT UNDER
   NWS QUALITY CONTROL.

LAZ038-040-048-061>063-065>067-069-301900-
SOUTHEAST LOUISIANA

CITY           SKY/WX    TMP DP  RH WIND       PRES   REMARKS
N.O. AUDUBON   NOT AVBL
N.O. INTL ARPT PTSUNNY   78  61  55 W10       30.22F
6HR MIN TEMP:  62; 6HR MAX TEMP:  80; 6HR PCP: TRACE;

N.O. LAKEFRONT MOSUNNY   77  65  66 N7        30.23F
6HR MIN TEMP:  66; 6HR MAX TEMP:  78;

SLIDELL        MOSUNNY   79  63  57 W9        30.22F
6HR MIN TEMP:  56; 6HR MAX TEMP:  79;

BATON ROUGE    PTSUNNY   81  59  47 SW13      30.22F
6HR MIN TEMP:  58; 6HR MAX TEMP:  80;

BOOTHVILLE     SUNNY     77  64  64 SW9       30.26F
6HR MIN TEMP:  61; 6HR MAX TEMP:  77;

BELLE CHASSE   MOSUNNY   79  60  52 SW9       30.22F
6HR MIN TEMP:  56; 6HR MAX TEMP:  79;

BOGALUSA*        N/A     80  59  48 NW9       30.23F
6HR MIN TEMP:  57; 6HR MAX TEMP:  81;

GALLIANO*      CLOUDY    80  63  55 MISG      30.24F
6HR MIN TEMP:  55; 6HR MAX TEMP:  81;

NEW ROADS*     MOCLDY    77  60  54 SW8       30.22F
6HR MIN TEMP:  58; 6HR MAX TEMP:  78;

GONZALES*        N/A     79  63  57 W10       30.22F
6HR MIN TEMP:  58; 6HR MAX TEMP:  79;

HAMMOND*       PTSUNNY   81  57  44 NW3       30.23F
HOUMA*         PTSUNNY   81  63  54 W14       30.23F
PORT FOURCHON* CLEAR     77  63  61 W10       30.28F

$$

MSZ070-080>082-301900-
SOUTHERN MISSISSIPPI

CITY           SKY/WX    TMP DP  RH WIND       PRES   REMARKS
MCCOMB         MOSUNNY   79  57  46 SW12      30.21F
6HR MIN TEMP:  55; 6HR MAX TEMP:  79;

GULFPORT       PTSUNNY   77  63  61 S12       30.21F
6HR MIN TEMP:  60; 6HR MAX TEMP:  77;

BILOXI         MOSUNNY   76  65  67 SW15      30.21F
6HR MIN TEMP:  63; 6HR MAX TEMP:  77;

PASCAGOULA     PTSUNNY   80  64  58 S10       30.21F
6HR MIN TEMP:  61; 6HR MAX TEMP:  81;

STENNIS ARPT*  PTSUNNY   79  57  47 MISG      30.22F

$$

COASTAL OBSERVATIONS
LAKE AND NEARSHORE STATIONS

STATION/POSITION TIME  TEMP    WIND        PRES    WAVE
                       AIR SEA DIR/SP/G            HT/PER
                 (UTC) (F)     (DEG/KT/KT) (MB)    (FT/S)
PASCAGOULA       1700   71     210/  9/ 10 1023.7
WAVELAND YACHT   1700   76 66  270/  8/ 14 1023.5
GRAND ISLE       1700   76 68  150/  2/  3 1024.4
SOUTHWEST PASS   1700   75 54  210/  2/  2 1025.4
NEW CANAL        1700   71     360/  5/  6 1024.5
SHELL BEACH      1700   75 69  220/ 12/ 17 1024.2

OFFSHORE STATIONS

STATION/POSITION TIME  TEMP    WIND        PRES    WAVE
                       AIR SEA DIR/SP/G            HT/PER
                 (UTC) (F)     (DEG/KT/KT) (MB)    (FT/S)
64 S DAUPHIN ISL 1750   71 71  190/ 14/ 16 1024.8    3/ 5

$$




USA.gov is the U.S. government's official web portal to all federal, state and local government web resources and services.